Home > Weather > El Aaiún > Past weeks

Weather for the Past 2 Weeks in El Aaiún, Western Sahara

Now
82 °F

Sunny.


Feels Like: 80 °F
Forecast: 60 / 82 °F
Wind: 9 mph from East

Location: Laayoune/Hassan Isl

Current Time: Feb 7, 2016 at 1:46:47 PM

Latest Report: Feb 7, 2016 at 1:00 PM


Visibility: 10 mi

Pressure: 30.33 "Hg

Humidity: 17%

Dew point: 34 °F

Location of El AaiúnLocation

Historic Weather in El Aaiún — Graph

°F

El Aaiún Temperature Yesterday

Maximum temperature yesterday: 86 °F (at 2:00 PM)
Minimum temperature yesterday: 55 °F (at 3:00 AM)
Average temperature yesterday: 68 °F

High & Low Weather Summary for the Past Weeks

 TemperatureHumidityPressure
High86 °F (Feb 6, 2:00 PM)100% (Jan 30, 5:00 AM)30.42 "Hg (Jan 30, 5:00 AM)
Low-69 °F (Feb 3, 5:00 PM)11% (Jan 23, 2:00 PM)30.09 "Hg (Feb 5, 3:00 PM)
Average66 °F51%30.28 "Hg
* Reported Jan 23 12:00 Noon — Feb 7 12:00 Noon, El Aaiún, Weather by CustomWeather, © 2016

Note: Actual official high and low records may vary slightly from our data, if they occured in-between our weather recording intervals... More about our weather records

Advertising

El Aaiún Weather History for the Previous 24 Hours

 ConditionsComfort  
Time TempWeatherWind HumidityBarometerVisibility
12:00 PM
Sun, Feb 7
77 °FSunny.12 mph21%30.36 "Hg10 mi
11:00 AM72 °FSunny.13 mph29%30.36 "Hg10 mi
10:00 AM66 °FSunny.10 mph40%30.36 "Hg10 mi
9:00 AM63 °FSunny.10 mph59%30.30 "Hg10 mi
8:00 AM61 °FClear.10 mph68%30.30 "Hg5 mi
7:00 AM59 °FPassing clouds.9 mph77%30.27 "Hg5 mi
6:00 AM61 °FClear.14 mph72%30.27 "Hg10 mi
1:00 AM64 °FClear.16 mph64%30.27 "Hg5 mi
12:00 AM64 °FClear.18 mph64%30.27 "Hg5 mi
11:00 PM
Sat, Feb 6
64 °FMild.18 mph64%30.27 "Hg5 mi
10:00 PM66 °FClear.15 mph46%30.27 "Hg10 mi
9:00 PM68 °FClear.15 mph43%30.24 "Hg10 mi
8:00 PM70 °FClear.14 mph38%30.24 "Hg10 mi
7:00 PM72 °FSunny.8 mph38%30.21 "Hg10 mi
6:00 PM75 °FSunny.13 mph34%30.18 "Hg10 mi
5:00 PM75 °FSunny.16 mph11%30.18 "Hg10 mi
4:00 PM79 °FSunny.15 mph32%30.18 "Hg10 mi
3:00 PM84 °FSunny.2 mph13%30.18 "Hg10 mi
2:00 PM86 °FSunny.9 mph13%30.18 "Hg10 mi
1:00 PM84 °FSunny.14 mph14%30.21 "Hg10 mi
Weather by CustomWeather, © 2016

See weather overviewHow to use our weather pages